AJISAI (EGS)            
1 16908U 86061A   21100.56463714 -.00000094  00000-0  25225-4 0  9999
2 16908  50.0088 210.1123 0011332  41.1715  48.5920 12.44493662244656
COSMOS 1812             
1 17295U 87003A   21100.57198598  .00000758  00000-0  37910-4 0  9992
2 17295  82.5168 212.6727 0003140  12.5604 347.5707 15.15928318869705
SL-14 R/B               
1 17567U 87024B   21100.35091607  .00000090  00000-0  78728-5 0  9998
2 17567  82.5297 334.9617 0020659  71.3287 289.0169 14.83799275821960
COSMOS 1833             
1 17589U 87027A   21100.50429761  .00000070  00000-0  63580-4 0  9995
2 17589  70.9111 136.7866 0017879  20.6410 339.5429 14.12873665756874
SL-16 R/B               
1 17590U 87027B   21100.57497278  .00000140  00000-0  93594-4 0  9998
2 17590  71.0012  95.6839 0006344 318.3867  41.6773 14.16798101761244
SL-14 R/B               
1 17912U 87038B   21100.46602630  .00000068  00000-0  54832-5 0  9998
2 17912  82.5047 182.9700 0019270 325.8110  34.1862 14.83074124813149
COSMOS 1844             
1 17973U 87041A   21100.59781510 -.00000315  00000-0 -13905-3 0  9999
2 17973  70.8975 216.7547 0031896 199.2517 160.7402 14.14113296749921
SL-14 R/B               
1 18153U 87055B   21100.61483510  .00000062  00000-0  45686-5 0  9997
2 18153  82.5008 236.1266 0021858 168.9850 191.1848 14.83322399803838
COSMOS 1867             
1 18187U 87060A   21100.52038933 -.00000075  00000-0  94708-5 0  9999
2 18187  65.0096 289.3234 0018809 280.8664  79.0303 14.31120453763152
COSMOS 1892             
1 18421U 87088A   21100.36619732  .00000461  00000-0  21238-4 0  9999
2 18421  82.5011 339.6178 0016371 112.2398 248.0574 15.17557816829573
SL-14 R/B               
1 18749U 88001B   21099.91465083  .00000085  00000-0  74848-5 0  9992
2 18749  82.5122  79.8117 0019865  44.7321  15.8248 14.83253226775816
COSMOS 1933             
1 18958U 88020A   21100.56235366  .00000278  00000-0  18089-4 0  9996
2 18958  82.5327 198.6546 0010728 214.2062 145.8474 15.03893415779739
SL-3 R/B                
1 19046U 88032B   21100.56158123  .00000124  00000-0  13519-4 0  9996
2 19046  97.3926 114.2129 0034663 274.2037  85.5228 15.02906421781584
SL-16 R/B               
1 19120U 88039B   21100.41184152  .00000112  00000-0  76074-4 0  9993
2 19120  71.0136 261.0306 0023253 216.5062 143.4479 14.19222109703786
COSMOS 1953             
1 19210U 88050A   21100.09843664 -.00000067  00000-0 -65587-5 0  9999
2 19210  82.5136 121.8470 0013585 177.8777 182.2510 15.06218186766319
SL-8 R/B                
1 19257U 88053B   21100.62531903  .00000054  00000-0  26672-4 0  9997
2 19257  74.0493 174.5524 0019247  79.1760  90.1888 14.37514312718702
COSMOS 1975             
1 19573U 88093A   21100.35605207  .00000457  00000-0  30035-4 0  9996
2 19573  82.5187  76.5527 0013049 226.7780 133.2358 15.05122828748164
SL-14 R/B               
1 19574U 88093B   21100.57286185  .00000082  00000-0  70784-5 0  9991
2 19574  82.5286 282.1990 0021071 198.4431 221.9911 14.83364375734914
SL-16 R/B               
1 19650U 88102B   21100.36752963  .00000235  00000-0  14382-3 0  9996
2 19650  71.0005 325.5591 0015900 227.9565 132.0206 14.15803262672907
INTERCOSMOS 24          
1 20261U 89080A   21100.51158612  .00000124  00000-0  27345-4 0  9991
2 20261  82.6086 188.0317 1203566 122.3659 249.9712 12.56195191441296
SL-14 R/B               
1 20262U 89080C   21100.37572962  .00000015  00000-0  28061-5 0  9990
2 20262  82.5930 243.7181 1236352 320.1816  31.4570 12.48962147436052
DELTA 2 R/B(1)          
1 20303U 89085B   21100.62531876  .00001348  00000-0  43266-4 0  9991
2 20303  35.6401 301.8043 0092546 300.9828  58.1835 15.28863188714084
DELTA 1 R/B             
1 20323U 89089B   21100.56116609  .00000027  00000-0  16111-4 0  9995
2 20323  97.1168 205.5036 0072060  17.6411 342.7263 14.48392838635876
ARIANE 40 R/B           
1 20443U 90005H   21100.53302350  .00000012  00000-0  18340-4 0  9995
2 20443  98.5345 167.2464 0010702 171.5430 188.5939 14.38120818634811
DELTA 2 R/B(1)          
1 20453U 90008B   21100.61750722  .00000617  00000-0  36079-4 0  9998
2 20453  35.6262 303.0607 0278666 266.9602  89.9195 14.86409969655424
COSMOS 2058             
1 20465U 90010A   21100.41376258  .00000286  00000-0  21805-4 0  9993
2 20465  82.4912 347.5688 0013858 281.6373  78.3295 14.98179058672787
SL-14 R/B               
1 20466U 90010B   21100.40603670  .00000091  00000-0  85079-5 0  9992
2 20466  82.5025 148.8789 0022088  82.7292 277.6431 14.81417966662693
SL-14 R/B               
1 20511U 90018B   21100.24499219  .00000078  00000-0  72211-5 0  9994
2 20511  82.5199  96.7292 0016380 220.7405 149.7409 14.80072842657017
HST                     
1 20580U 90037B   21100.56583219  .00000496  00000-0  19056-4 0  9991
2 20580  28.4689 154.2603 0002889  55.0368  94.2990 15.09607769500816
SL-16 R/B               
1 20625U 90046B   21100.41420571  .00000089  00000-0  71138-4 0  9993
2 20625  70.9961 104.8835 0013536 159.3361 200.8311 14.14662701594616
COSMOS 2084             
1 20663U 90055A   21100.60069526 -.00000035  00000-0  14928-4 0  9991
2 20663  62.7937 255.9578 0059620 356.2814   3.7827 14.92221588667698
SL-6 R/B(2)             
1 20666U 90055D   21100.46979856 -.00000019  00000-0  16525-4 0  9991
2 20666  62.7848 172.0829 0089363  27.1130 333.4589 14.92464614669624
SL-8 R/B                
1 20775U 90078B   21100.37436655  .00002733  00000-0  13150-3 0  9996
2 20775  82.9284 341.5858 0568461 354.2895   5.1979 14.35559866548321
SL-8 R/B                
1 21088U 91006B   21100.34387670  .00000097  00000-0  82711-4 0  9996
2 21088  82.9421  64.4846 0023237  23.3106 130.2823 13.77160348517070
OKEAN-3                 
1 21397U 91039A   21100.41929859  .00000246  00000-0  21135-4 0  9993
2 21397  82.5202 254.3769 0016323 254.3451 105.5968 14.93070077596572
COSMOS 2151             
1 21422U 91042A   21100.45744490  .00000153  00000-0  12479-4 0  9994
2 21422  82.5035   0.1632 0013297 326.4718  33.5658 14.92237133595162
SL-14 R/B               
1 21423U 91042B   21100.23827219  .00000075  00000-0  68717-5 0  9992
2 21423  82.4906  99.5252 0017885  12.1232 348.0408 14.79822401587550
ERS-1                   
1 21574U 91050A   21100.36725984  .00000026  00000-0  23441-4 0  9998
2 21574  98.6408  60.4748 0033912 123.1066 237.3384 14.37790179557782
ARIANE 40 R/B           
1 21610U 91050F   21100.46258941  .00000020  00000-0  19823-4 0  9997
2 21610  98.4279 172.1916 0004476  91.2412 279.4425 14.40940969560479
INTERCOSMOS 25          
1 21819U 91086A   21100.11959441  .00000803  00000-0  15940-3 0  9996
2 21819  82.5772 308.5546 1516666 359.8804   0.1709 12.05204416280027
SL-8 R/B                
1 21876U 92008B   21100.57763601  .00000078  00000-0  64759-4 0  9992
2 21876  82.9280 161.5920 0036288 104.0753  21.3393 13.75669753462955
SL-8 R/B                
1 21938U 92020B   21100.60911002  .00000006  00000-0 -94397-5 0  9993
2 21938  82.9320  45.9460 0027846 264.5627 269.2716 13.75285382454512
COSMOS 2219             
1 22219U 92076A   21100.48013895 -.00000144  00000-0 -51547-4 0  9999
2 22219  71.0611 167.2241 0016093  55.5143 304.7496 14.13663357464780
SL-16 R/B               
1 22220U 92076B   21100.02239301 -.00000264  00000-0 -10836-3 0  9991
2 22220  71.0028   7.2844 0014715 304.4033  66.0867 14.16467016467677
COSMOS 2221             
1 22236U 92080A   21100.18599922  .00000188  00000-0  17659-4 0  9992
2 22236  82.5106 183.2532 0017929  60.0533 300.2462 14.88035892513406
SL-16 R/B               
1 22285U 92093B   21100.48160521 -.00000197  00000-0 -76930-4 0  9991
2 22285  71.0218 169.3758 0004229 197.3755 162.7224 14.15058690459330
COSMOS 2228             
1 22286U 92094A   21100.56521273  .00000224  00000-0  21471-4 0  9996
2 22286  82.5185 139.4999 0021383 169.9272 190.2379 14.88256405508634
SL-16 R/B               
1 22566U 93016B   21100.52516194  .00000250  00000-0  15360-3 0  9992
2 22566  71.0105  22.1638 0010425 185.4821 174.6190 14.14972608448354
COSMOS 2242             
1 22626U 93024A   21100.43775795  .00000201  00000-0  19074-4 0  9995
2 22626  82.5231 167.8639 0019242 170.0835 190.0767 14.88105753513015
SL-16 R/B               
1 22803U 93059B   21100.49238942  .00000083  00000-0  65190-4 0  9992
2 22803  70.9910 193.2777 0015219  59.8444 300.4185 14.16833179425635
